Time,TemperatureF,DewpointF,PressureIn,WindDirection,WindDirectionDegrees,WindSpeedMPH,WindSpeedGustMPH,Humidity,HourlyPrecipIn,Conditions,Clouds,dailyrainin,SoftwareType,DateUTC
2013-02-09 07:28:00,19.4,18.9,29.82,North,0,6.3,-999.0,98,-99.99,,,0.00,Acu-Link.com,2013-02-09 12:28:00,
2013-02-09 17:35:00,21.2,20.7,30.05,NW,315,1.6,-999.0,98,-99.99,,,0.00,Acu-Link.com,2013-02-09 22:35:00,
2013-02-09 17:51:00,21.2,20.7,30.07,WNW,292,4.0,-999.0,98,-99.99,,,0.00,Acu-Link.com,2013-02-09 22:51:00,
2013-02-09 18:06:00,21.2,20.7,30.08,North,0,2.0,-999.0,98,-99.99,,,0.00,Acu-Link.com,2013-02-09 23:06:00,
2013-02-09 18:21:00,21.2,20.7,30.09,East,90,6.3,-999.0,98,-99.99,,,0.00,Acu-Link.com,2013-02-09 23:21:00,
2013-02-09 18:37:00,21.2,20.7,30.10,SW,225,4.7,-999.0,98,-99.99,,,0.00,Acu-Link.com,2013-02-09 23:37:00,
2013-02-09 18:52:00,19.4,18.9,30.12,ENE,67,4.0,-999.0,98,-99.99,,,0.00,Acu-Link.com,2013-02-09 23:52:00,
2013-02-09 19:07:00,19.4,18.9,30.13,NE,45,4.0,-999.0,98,-99.99,,,0.00,Acu-Link.com,2013-02-10 00:07:00,
2013-02-09 19:22:00,17.6,17.1,30.14,ENE,67,5.1,-999.0,98,-99.99,,,0.00,Acu-Link.com,2013-02-10 00:22:00,
2013-02-09 19:38:00,17.6,17.1,30.15,NE,45,3.1,-999.0,98,-99.99,,,0.00,Acu-Link.com,2013-02-10 00:38:00,
2013-02-09 19:53:00,17.6,17.1,30.16,ENE,67,3.1,-999.0,98,-99.99,,,0.00,Acu-Link.com,2013-02-10 00:53:00,
2013-02-09 20:08:00,15.8,15.3,30.17,ENE,67,7.2,-999.0,98,-99.99,,,0.00,Acu-Link.com,2013-02-10 01:08:00,
2013-02-09 20:24:00,15.8,15.3,30.17,NE,45,1.6,-999.0,98,-99.99,,,0.00,Acu-Link.com,2013-02-10 01:24:00,
2013-02-09 20:39:00,14.0,13.5,30.19,NE,45,2.7,-999.0,98,-99.99,,,0.00,Acu-Link.com,2013-02-10 01:39:00,
2013-02-09 20:54:00,14.0,13.5,30.19,NE,45,1.6,-999.0,98,-99.99,,,0.00,Acu-Link.com,2013-02-10 01:54:00,
2013-02-09 21:10:00,14.0,13.5,30.19,North,0,2.7,-999.0,98,-99.99,,,0.73,Acu-Link.com,2013-02-10 02:10:00,
2013-02-09 21:25:00,14.0,13.5,30.20,NNE,22,1.6,-999.0,98,-99.99,,,0.73,Acu-Link.com,2013-02-10 02:25:00,
2013-02-09 21:40:00,14.0,13.5,30.20,WNW,292,0.0,-999.0,98,-99.99,,,0.73,Acu-Link.com,2013-02-10 02:40:00,
2013-02-09 21:56:00,12.2,11.7,30.20,NNE,22,3.1,-999.0,98,-99.99,,,0.73,Acu-Link.com,2013-02-10 02:56:00,
2013-02-09 22:11:00,12.2,11.7,30.20,NNE,22,1.1,-999.0,98,-99.99,,,0.73,Acu-Link.com,2013-02-10 03:11:00,
2013-02-09 22:26:00,12.2,11.7,30.20,NW,315,0.0,-999.0,98,-99.99,,,0.73,Acu-Link.com,2013-02-10 03:26:00,
2013-02-09 22:41:00,10.4,9.9,30.21,NW,315,0.0,-999.0,98,-99.99,,,0.73,Acu-Link.com,2013-02-10 03:41:00,
2013-02-09 22:57:00,10.4,9.9,30.21,SW,225,0.0,-999.0,98,-99.99,,,0.73,Acu-Link.com,2013-02-10 03:57:00,
2013-02-09 23:12:00,10.4,9.9,30.21,West,270,0.0,-999.0,98,-99.99,,,0.73,Acu-Link.com,2013-02-10 04:12:00,
2013-02-09 23:27:00,8.6,8.2,30.22,East,90,0.0,-999.0,98,-99.99,,,0.73,Acu-Link.com,2013-02-10 04:27:00,
2013-02-09 23:43:00,8.6,8.2,30.22,SSE,157,1.1,-999.0,98,-99.99,,,0.73,Acu-Link.com,2013-02-10 04:43:00,
2013-02-09 23:58:00,8.6,8.2,30.22,NNE,22,2.0,-999.0,98,-99.99,,,0.73,Acu-Link.com,2013-02-10 04:58:00,